Location: Augsburg
(48.3836°N, 10.8929°E)
Time: 16:59:08
(UTC+02:00)

ISS - Pass Details

Date: 21 May 2021
Orbit: 417 x 422 km, 51.6° (Epoch: 12 June)

Event Time Altitude Azimuth Distance (km) Brightness Sun altitude
Rises 23:44:18 0° 288° (WNW) 2,369 0.7 -18.4°
Reaches altitude 10° 23:46:25 10° 292° (WNW) 1,504 -0.4 -18.6°
Maximum altitude 23:49:45 56° 13° (NNE) 504 -3.2 -18.8°
Enters shadow 23:51:18 28° 81° (E) 832 -2.4 -18.9°
